#datint,netname,site,siteID,timestamp,IntT,BattV,AirT2,AirT,AirT_Avg,AirT_Max,AirT_Min,RH_Avg,RH_Max,RH_Min,EA_Avg,Td_Avg,Td_Max,Td_Min,WindS_Smp,WindS_Avg,WindD_Avg,WindD_SD,WindS_Max,ETo,ETr,SoilT4,SoilT8,SoilVWC8,SolarW_Avg,wetstate_Avg,wetT_Avg,Precip_accum,Precip_WPG,Precip_TB
15min,AgWx,beryljct,423,10SEP2019:00:00:00,67.2,12.98,68.2,68.6,68.0,68.6,67.3,55,57,53,1.276,51.4,51.6,51.1,8.81,8.6,186,17,17.0,0.00046,0.00062,67.8,68.2,9,0,.,.,17.19,0.00,0.00
15min,AgWx,beryljct,423,10SEP2019:00:15:00,67.3,12.98,69.0,68.3,68.5,68.8,68.2,54,54,53,1.283,51.1,51.3,51.0,12.58,8.7,195,11,12.7,0.00048,0.00065,67.7,68.2,9,0,.,.,17.19,0.00,0.00
15min,AgWx,beryljct,423,10SEP2019:00:30:00,67.3,12.97,66.8,67.7,68.4,68.8,67.7,55,56,54,1.305,51.6,51.8,51.3,6.292,8.5,182,15,14.3,0.00046,0.00063,67.5,68.2,9,0,.,.,17.19,0.00,0.00
15min,AgWx,beryljct,423,10SEP2019:00:45:00,67.0,12.97,67.9,67.8,67.3,67.8,65.3,58,61,56,1.312,51.8,52.1,51.6,6.467,7.1,179,19,12.6,0.00034,0.00047,67.4,68.2,9,0,.,.,17.19,0.00,0.00
15min,AgWx,beryljct,423,10SEP2019:01:00:00,66.9,12.97,68.7,68.5,68.0,68.8,67.3,56,58,54,1.292,51.6,52.0,51.4,9.91,9.5,184,11,17.8,0.00049,0.00065,67.3,68.1,9,0,.,.,17.19,0.00,0.00
15min,AgWx,beryljct,423,10SEP2019:01:15:00,67.2,12.96,68.8,68.6,68.4,68.9,67.9,54,55,53,1.263,51.2,51.5,50.7,12.56,10.2,189,12,16.2,0.00055,0.00072,67.2,68.1,10,0,.,.,17.19,0.00,0.00
15min,AgWx,beryljct,423,10SEP2019:01:30:00,67.5,12.95,69.5,69.0,68.8,69.3,68.4,53,53,52,1.268,50.8,51.0,50.7,20.06,14.2,194,10,22.1,0.00073,0.00090,67.0,68.1,10,0,.,.,17.19,0.00,0.00
15min,AgWx,beryljct,423,10SEP2019:01:45:00,67.9,12.94,68.7,68.9,69.0,69.2,68.5,52,53,52,1.252,50.8,51.0,50.5,11.95,13.8,196,7.8,20.1,0.00073,0.00091,67.0,68.0,9,0,.,.,17.19,0.00,0.00
15min,AgWx,beryljct,423,10SEP2019:02:00:00,68.1,12.93,68.0,68.4,68.9,69.1,68.4,51,52,51,1.212,50.2,50.6,49.7,12.71,14.6,191,9.1,21.8,0.00077,0.00095,66.8,68.0,9,0,.,.,17.18,0.00,0.00
15min,AgWx,beryljct,423,10SEP2019:02:15:00,68.1,12.92,68.4,68.5,68.6,68.9,68.4,48,51,47,1.136,48.4,49.7,47.7,12.56,14.4,194,9.7,22.9,0.00081,0.00099,66.7,68.0,9,0,.,.,17.19,0.00,0.00
15min,AgWx,beryljct,423,10SEP2019:02:30:00,67.9,12.91,68.1,67.8,68.0,68.5,67.6,49,49,48,1.106,47.9,48.2,47.2,11.27,11.3,193,10,17.8,0.00068,0.00087,66.6,67.9,10,0,.,.,17.18,0.00,0.00
15min,AgWx,beryljct,423,10SEP2019:02:45:00,67.5,12.91,67.4,67.4,67.6,67.9,67.3,48,49,47,1.097,47.2,47.4,46.9,10.04,10.2,201,8.9,14.2,0.00063,0.00082,66.5,67.8,10,0,.,.,17.18,0.00,0.00
15min,AgWx,beryljct,423,10SEP2019:03:00:00,67.2,12.89,67.9,67.7,67.5,67.9,67.3,47,48,47,1.083,46.9,47.0,46.6,14.86,11.7,200,8.2,17.4,0.00070,0.00089,66.5,67.8,9,0,.,.,17.18,0.00,0.00
15min,AgWx,beryljct,423,10SEP2019:03:15:00,67.1,12.9,67.7,67.4,67.5,67.8,67.1,47,48,47,1.092,46.8,47.0,46.6,10.68,11.2,199,7.7,15.7,0.00069,0.00087,66.4,67.8,9,0,.,.,17.18,0.00,0.00
15min,AgWx,beryljct,423,10SEP2019:03:30:00,67.0,12.89,67.9,67.5,67.4,67.7,67.0,48,49,47,1.073,46.8,47.3,46.4,14.42,12.2,200,11,17.9,0.00071,0.00090,66.3,67.8,10,0,.,.,17.18,0.00,0.00
15min,AgWx,beryljct,423,10SEP2019:03:45:00,66.9,12.88,67.2,66.7,67.2,67.7,66.7,47,48,46,1.067,46.2,46.4,46.0,13.13,12.0,205,9.6,20.7,0.00072,0.00091,66.2,67.7,9,0,.,.,17.18,0.00,0.00
15min,AgWx,beryljct,423,10SEP2019:04:00:00,66.7,12.88,67.1,67.0,67.1,67.4,66.7,46,48,46,1.041,45.8,46.3,45.5,15.17,12.5,201,9.1,18.0,0.00074,0.00093,66.1,67.7,9,0,.,.,17.18,0.00,0.00
15min,AgWx,beryljct,423,10SEP2019:04:15:00,66.5,12.87,66.2,66.8,66.8,67.2,66.4,45,47,44,0.996,44.9,45.7,44.4,7.651,12.3,199,9.5,19.2,0.00075,0.00094,66.0,67.6,9,0,.,.,17.18,0.00,0.00
15min,AgWx,beryljct,423,10SEP2019:04:30:00,66.2,12.87,65.3,65.8,66.4,67.0,65.7,46,47,44,1.011,44.8,45.1,44.4,7.453,10.8,199,9.7,17.5,0.00067,0.00086,65.9,67.6,9,0,.,.,17.18,0.00,0.00
15min,AgWx,beryljct,423,10SEP2019:04:45:00,65.9,12.86,66.1,66.4,66.2,66.6,65.6,46,47,45,1.014,44.7,44.9,44.5,11.79,13.0,201,10,19.2,0.00075,0.00094,65.8,67.6,10,0,.,.,17.18,0.00,0.00
15min,AgWx,beryljct,423,10SEP2019:05:00:00,65.8,12.86,65.7,66.2,66.1,66.4,65.8,47,48,46,1.042,45.4,45.8,44.9,10.37,13.7,198,12,20.7,0.00076,0.00094,65.8,67.5,9,0,.,.,17.18,0.00,0.00
15min,AgWx,beryljct,423,10SEP2019:05:15:00,65.5,12.86,64.7,64.9,65.4,66.1,64.9,49,50,48,1.053,45.8,46.0,45.6,8.72,10.1,198,9.7,16.0,0.00058,0.00075,65.6,67.5,10,0,.,.,17.17,0.00,0.00
15min,AgWx,beryljct,423,10SEP2019:05:30:00,65.0,12.85,64.7,65.0,65.0,65.2,64.7,49,50,49,1.035,45.6,46.0,45.4,8.77,10.5,196,8.1,16.2,0.00058,0.00075,65.5,67.4,10,0,.,.,17.18,0.00,0.00
15min,AgWx,beryljct,423,10SEP2019:05:45:00,64.8,12.85,65.6,65.3,65.0,65.3,64.7,50,51,49,1.086,45.8,46.8,45.3,17.71,12.2,197,11,17.9,0.00064,0.00080,65.5,67.4,9,0,.,.,17.18,0.00,0.00
15min,AgWx,beryljct,423,10SEP2019:06:00:00,64.7,12.85,65.1,65.1,65.0,65.4,64.6,53,54,51,1.139,47.3,48.0,46.7,14.38,13.8,197,9.5,22.5,0.00065,0.00080,65.4,67.4,9,0,.,.,17.18,0.00,0.00
15min,AgWx,beryljct,423,10SEP2019:06:15:00,64.7,12.84,64.8,65.0,64.8,65.2,64.5,55,57,54,1.176,48.6,48.9,48.0,13.77,14.6,199,11,21.9,0.00063,0.00076,65.3,67.3,9,0,.,.,17.18,0.00,0.00
15min,AgWx,beryljct,423,10SEP2019:06:30:00,64.5,12.83,64.2,64.1,64.4,65.0,63.9,57,58,56,1.189,49.0,49.3,48.8,15.41,12.9,197,9.1,19.9,0.00128,0.00223,65.2,67.3,10,0,.,.,17.18,0.00,0.00
15min,AgWx,beryljct,423,10SEP2019:06:45:00,64.3,12.83,63.8,63.7,64.1,64.4,63.7,59,60,58,1.199,49.4,49.6,49.1,11.86,13.2,198,8.5,18.4,0.00126,0.00219,65.1,67.2,10,0,.,.,17.18,0.00,0.00
15min,AgWx,beryljct,423,10SEP2019:07:00:00,64.0,12.84,63.9,63.3,63.8,64.0,63.3,60,61,59,1.215,49.6,49.9,49.3,14.62,12.4,198,7.2,18.7,0.00116,0.00202,65.0,67.2,10,0,.,.,17.18,0.00,0.00
15min,AgWx,beryljct,423,10SEP2019:07:15:00,63.8,12.83,63.4,63.8,63.8,64.0,63.4,61,61,60,1.233,49.9,50.2,49.8,10.94,14.8,194,9.0,18.5,0.00130,0.00227,65.0,67.2,9,3,.,.,17.18,0.01,0.00
15min,AgWx,beryljct,423,10SEP2019:07:30:00,63.7,12.86,63.6,63.5,63.6,63.8,63.3,61,62,61,1.237,50.1,50.3,50.0,13.09,13.1,194,8.7,17.8,0.00123,0.00209,64.9,67.1,10,16,.,.,17.18,0.00,0.00
15min,AgWx,beryljct,423,10SEP2019:07:45:00,63.8,12.88,63.8,63.8,63.6,64.0,63.3,61,62,60,1.241,50.2,50.4,49.9,13.2,14.2,195,8.0,21.4,0.00145,0.00238,64.8,67.1,10,48,.,.,17.18,0.00,0.00
15min,AgWx,beryljct,423,10SEP2019:08:00:00,64.0,12.91,64.3,64.3,64.0,64.3,63.8,61,62,60,1.234,50.2,50.4,50.0,13.09,13.3,193,8.3,16.9,0.00160,0.00251,64.7,67.0,9,92,.,.,17.18,0.00,0.00
15min,AgWx,beryljct,423,10SEP2019:08:15:00,64.6,12.96,64.2,64.2,64.4,64.7,63.9,59,61,58,1.250,50.0,50.5,49.4,8.62,12.0,183,11,19.2,0.00176,0.00266,64.7,67.0,9,143,.,.,17.18,0.00,0.00
15min,AgWx,beryljct,423,10SEP2019:08:30:00,65.4,13.07,65.5,65.5,65.0,65.7,64.2,58,61,55,1.245,50.0,50.5,49.3,8.99,12.5,187,8.0,20.1,0.00208,0.00305,64.6,66.9,9,200,.,.,17.18,0.00,0.00
15min,AgWx,beryljct,423,10SEP2019:08:45:00,66.5,13.27,66.5,66.3,66.0,66.5,65.5,55,59,53,1.182,49.4,51.0,48.7,10.37,15.9,190,10,24.8,0.00264,0.00389,64.6,66.9,9,259,.,.,17.18,0.00,0.00
15min,AgWx,beryljct,423,10SEP2019:09:00:00,67.3,13.47,65.8,65.8,66.1,66.4,65.8,55,58,54,1.214,49.7,50.6,49.1,17.12,17.3,210,13,25.0,0.00283,0.00415,64.5,66.9,9,288,.,.,17.18,0.00,0.00
15min,AgWx,beryljct,423,10SEP2019:09:15:00,67.6,13.44,65.0,65.6,65.8,66.0,65.5,55,56,54,1.179,49.4,49.9,48.8,17.21,18.8,204,8.1,24.4,0.00271,0.00408,64.5,66.8,9,227,.,.,17.18,0.00,0.00
15min,AgWx,beryljct,423,10SEP2019:09:30:00,67.5,13.62,65.4,65.4,65.4,65.8,65.1,55,56,54,1.159,49.1,49.6,48.4,21.2,17.6,204,7.4,21.6,0.00263,0.00394,64.5,66.8,9,225,.,.,17.18,0.00,0.00
15min,AgWx,beryljct,423,10SEP2019:09:45:00,67.3,13.54,65.6,66.0,65.3,66.0,64.9,55,58,52,1.134,48.9,49.9,47.9,14.36,15.4,201,8.2,23.6,0.00260,0.00382,64.5,66.7,9,233,.,.,17.18,0.00,0.00
15min,AgWx,beryljct,423,10SEP2019:10:00:00,67.3,14.23,65.9,65.6,65.4,65.9,65.0,53,55,51,1.099,47.8,48.6,46.8,22.43,17.4,208,9.1,23.7,0.00285,0.00423,64.5,66.7,9,253,.,.,17.18,0.00,0.00
15min,AgWx,beryljct,423,10SEP2019:10:15:00,67.5,14.15,67.5,66.9,66.0,66.9,65.6,49,51,47,1.093,46.4,47.6,45.7,16.2,18.2,201,9.9,22.8,0.00326,0.00482,64.5,66.7,9,297,.,.,17.18,0.00,0.00
15min,AgWx,beryljct,423,10SEP2019:10:30:00,68.2,14.22,68.1,67.8,67.0,67.8,66.3,48,51,45,1.103,46.6,48.4,45.5,13.26,16.4,204,9.6,25.5,0.00379,0.00534,64.6,66.6,9,424,.,.,17.18,0.00,0.00
15min,AgWx,beryljct,423,10SEP2019:10:45:00,69.7,14.11,69.5,69.1,68.6,69.2,67.8,45,49,42,1.075,46.4,48.5,44.6,15.78,16.8,193,13,23.2,0.00488,0.00662,64.6,66.6,9,635,.,.,17.17,0.00,0.00
15min,AgWx,beryljct,423,10SEP2019:11:00:00,71.3,14.05,70.4,70.2,69.7,70.3,69.1,41,44,39,0.999,44.9,46.2,44.0,18.5,18.7,185,12,26.9,0.00544,0.00748,64.6,66.6,9,691,.,.,17.17,0.00,0.00
15min,AgWx,beryljct,423,10SEP2019:11:15:00,72.4,14.15,71.6,71.0,70.2,71.0,69.9,39,43,37,1.064,44.5,47.0,42.8,12.67,19.6,186,9.1,29.4,0.00570,0.00786,64.7,66.6,9,714,.,.,17.17,0.00,0.00
15min,AgWx,beryljct,423,10SEP2019:11:30:00,73.2,14.05,69.9,70.4,70.8,71.3,70.4,39,42,37,1.005,44.8,46.6,42.9,19.4,18.6,192,12,26.1,0.00592,0.00806,64.8,66.5,9,761,.,.,17.17,0.00,0.00
15min,AgWx,beryljct,423,10SEP2019:11:45:00,73.6,14.1,70.5,70.5,70.5,71.2,69.8,39,42,36,1.043,44.6,46.5,42.8,12.08,18.3,185,15,26.6,0.00554,0.00763,65.0,66.5,9,665,.,.,17.17,0.00,0.00
15min,AgWx,beryljct,423,10SEP2019:12:00:00,73.7,13.63,72.4,71.6,70.7,71.8,69.5,41,43,38,1.067,45.6,47.5,44.1,18.5,16.0,190,20,21.0,0.00588,0.00780,65.1,66.5,9,788,.,.,17.17,0.00,0.00
15min,AgWx,beryljct,423,10SEP2019:12:15:00,74.4,13.64,72.3,71.7,71.6,72.4,70.4,38,42,35,1.048,44.9,47.2,43.0,13.9,16.5,190,17,25.0,0.00583,0.00788,65.4,66.5,9,725,.,.,17.16,0.00,0.00
15min,AgWx,beryljct,423,10SEP2019:12:30:00,74.4,13.63,70.4,70.3,70.8,72.7,69.8,39,42,36,1.072,44.7,47.4,41.9,13.42,14.9,190,14,20.8,0.00446,0.00627,65.6,66.5,9,447,.,.,17.17,0.00,0.00
15min,AgWx,beryljct,423,10SEP2019:12:45:00,73.3,13.7,69.0,69.4,69.0,70.6,67.9,43,47,41,1.013,45.8,47.8,44.1,20.58,14.1,205,11,21.6,0.00337,0.00491,65.9,66.5,9,275,.,.,17.17,0.00,0.00
15min,AgWx,beryljct,423,10SEP2019:13:00:00,72.5,13.69,69.0,69.8,69.4,70.4,68.7,42,45,40,1.008,45.5,46.6,44.4,17.6,15.6,207,10,20.8,0.00404,0.00577,66.2,66.5,9,393,.,.,17.17,0.00,0.00
15min,AgWx,beryljct,423,10SEP2019:13:15:00,72.6,13.68,70.9,70.9,70.8,72.4,69.0,40,43,37,1.066,45.3,48.0,43.7,13.66,15.2,200,12,21.4,0.00499,0.00684,66.5,66.5,9,586,.,.,17.17,0.00,0.00
15min,AgWx,beryljct,423,10SEP2019:13:30:00,73.1,13.67,71.2,71.6,71.4,72.1,70.8,40,42,39,1.065,46.1,47.4,44.5,16.42,15.5,202,12,21.2,0.00521,0.00709,66.7,66.5,9,621,.,.,17.17,0.00,0.00
15min,AgWx,beryljct,423,10SEP2019:13:45:00,74.1,13.72,72.3,73.2,73.1,74.1,71.6,38,42,35,0.996,46.1,48.4,44.4,13.46,14.4,192,16,21.9,0.00621,0.00817,66.9,66.5,9,808,.,.,17.17,0.00,0.00
15min,AgWx,beryljct,423,10SEP2019:14:00:00,75.2,13.65,74.0,72.8,72.7,73.8,71.5,37,41,35,1.021,45.1,46.7,43.1,18.63,15.7,182,13,24.3,0.00603,0.00809,67.2,66.5,9,751,.,.,17.17,0.00,0.00
15min,AgWx,beryljct,423,10SEP2019:14:15:00,75.7,13.6,74.4,73.9,73.0,73.9,72.4,37,41,34,1.016,45.0,47.2,43.1,16.77,16.7,191,13,22.5,0.00607,0.00824,67.4,66.5,9,757,.,.,17.17,0.00,0.00
15min,AgWx,beryljct,423,10SEP2019:14:30:00,76.3,13.57,73.4,72.8,73.2,74.1,72.6,36,39,32,1.015,44.4,46.6,42.0,11.75,17.0,197,16,26.9,0.00676,0.00903,67.7,66.6,9,875,.,.,17.17,0.00,0.00
15min,AgWx,beryljct,423,10SEP2019:14:45:00,76.9,13.58,73.1,73.4,73.6,74.5,72.8,37,40,34,0.980,45.7,48.5,43.6,20.58,15.6,194,16,24.3,0.00607,0.00815,68.1,66.6,9,755,.,.,17.17,0.00,0.00
15min,AgWx,beryljct,423,10SEP2019:15:00:00,77.1,13.58,72.7,72.7,73.1,73.7,72.2,36,38,34,1.000,44.4,46.4,43.2,14.64,17.5,188,15,24.8,0.00576,0.00800,68.4,66.7,9,685,.,.,17.17,0.00,0.00
15min,AgWx,beryljct,423,10SEP2019:15:15:00,77.5,13.57,71.9,73.1,73.7,75.7,72.7,37,40,35,1.039,46.0,48.2,44.2,10.57,14.4,191,16,21.4,0.00569,0.00767,68.8,66.7,9,697,.,.,17.17,0.00,0.00
15min,AgWx,beryljct,423,10SEP2019:15:30:00,77.4,13.62,74.5,73.2,73.2,74.4,72.1,38,41,34,1.047,45.9,48.9,44.2,12.12,15.4,188,14,23.0,0.00499,0.00697,69.2,66.8,9,567,.,.,17.17,0.00,0.00
15min,AgWx,beryljct,423,10SEP2019:15:45:00,77.7,13.53,74.5,74.0,74.1,75.0,72.9,37,40,34,1.057,46.3,48.4,44.5,12.14,15.0,185,14,23.2,0.00571,0.00775,69.5,66.8,9,694,.,.,17.17,0.00,0.00
15min,AgWx,beryljct,423,10SEP2019:16:00:00,78.1,13.54,73.8,74.2,74.2,74.7,73.4,36,38,32,1.020,45.4,47.1,42.6,17.54,17.5,196,12,26.6,0.00591,0.00818,69.8,66.9,9,694,.,.,17.17,0.00,0.00
15min,AgWx,beryljct,423,10SEP2019:16:15:00,78.4,13.53,75.2,74.9,74.6,75.5,73.7,37,39,35,1.083,46.4,48.2,44.9,10.39,14.4,192,13,20.4,0.00589,0.00792,70.1,66.9,9,724,.,.,17.17,0.00,0.00
15min,AgWx,beryljct,423,10SEP2019:16:30:00,78.8,13.53,73.9,73.4,74.3,75.2,73.2,36,40,34,1.037,45.8,47.7,44.4,17.03,17.3,209,15,26.9,0.00587,0.00812,70.4,67.0,9,689,.,.,17.16,0.00,0.00
15min,AgWx,beryljct,423,10SEP2019:16:45:00,78.4,13.51,72.6,73.1,73.2,73.9,72.5,37,40,34,0.996,45.3,47.1,44.0,19.88,18.3,216,14,25.9,0.00535,0.00759,70.7,67.1,9,597,.,.,17.17,0.01,0.00
15min,AgWx,beryljct,423,10SEP2019:17:00:00,77.7,13.54,72.2,72.5,72.7,73.5,72.1,37,41,35,1.038,45.2,47.7,43.6,12.89,17.0,212,11,25.0,0.00479,0.00689,71.0,67.2,9,526,.,.,17.17,0.00,0.00
15min,AgWx,beryljct,423,10SEP2019:17:15:00,77.0,13.53,72.5,72.9,72.4,72.9,72.0,36,39,33,0.923,43.9,46.0,42.5,19.93,17.4,214,12,24.7,0.00464,0.00677,71.2,67.3,9,483,.,.,17.17,0.00,0.00
15min,AgWx,beryljct,423,10SEP2019:17:30:00,76.6,13.54,73.0,72.8,72.5,72.9,72.0,35,38,34,0.948,43.4,44.9,42.5,16.66,17.8,211,12,25.9,0.00458,0.00676,71.4,67.4,9,458,.,.,17.17,0.00,0.00
15min,AgWx,beryljct,423,10SEP2019:17:45:00,76.2,13.55,72.2,72.6,72.6,73.0,72.3,35,37,32,0.935,43.1,44.9,41.5,16.9,18.3,212,11,24.8,0.00441,0.00664,71.5,67.5,9,411,.,.,17.17,0.00,0.00
15min,AgWx,beryljct,423,10SEP2019:18:00:00,75.9,13.57,71.9,72.0,72.4,72.7,72.0,33,35,31,0.906,41.5,43.4,39.9,12.76,18.7,206,10,29.3,0.00423,0.00654,71.6,67.5,9,360,.,.,17.17,0.00,0.00
15min,AgWx,beryljct,423,10SEP2019:18:15:00,75.4,13.6,72.5,72.8,72.4,72.8,72.0,32,34,29,0.825,41.0,42.6,38.8,14.64,16.2,201,13,22.6,0.00368,0.00578,71.6,67.6,9,295,.,.,17.17,0.00,0.00
15min,AgWx,beryljct,423,10SEP2019:18:30:00,75.0,13.58,71.8,72.1,72.4,72.7,72.1,31,32,30,0.846,40.1,40.8,39.2,18.9,17.5,192,9.0,25.3,0.00358,0.00581,71.6,67.7,9,244,.,.,17.17,0.00,0.00
15min,AgWx,beryljct,423,10SEP2019:18:45:00,74.5,13.61,71.7,71.8,71.9,72.2,71.7,31,32,29,0.850,39.6,40.5,38.5,21.97,20.0,196,8.6,25.9,0.00349,0.00589,71.6,67.8,9,182,.,.,17.17,0.01,0.00
15min,AgWx,beryljct,423,10SEP2019:19:00:00,73.8,13.36,70.8,71.1,71.5,71.8,71.1,32,33,30,0.817,39.7,40.9,38.5,12.67,18.1,198,10,27.0,0.00153,0.00181,71.5,67.9,9,133,.,.,17.17,0.00,0.00
15min,AgWx,beryljct,423,10SEP2019:19:15:00,73.0,13.26,71.1,71.1,71.1,71.4,70.9,32,33,31,0.857,39.7,40.7,39.0,19.09,16.2,191,8.9,25.0,0.00138,0.00166,71.5,68.0,9,86,.,.,17.17,0.00,0.00
15min,AgWx,beryljct,423,10SEP2019:19:30:00,72.1,13.17,69.4,70.1,70.4,71.1,70.1,33,34,32,0.812,39.9,41.1,38.9,10.39,13.6,195,8.9,17.9,0.00116,0.00143,71.3,68.1,9,37,.,.,17.17,0.00,0.00
15min,AgWx,beryljct,423,10SEP2019:19:45:00,71.1,13.13,69.3,69.7,69.8,70.1,69.7,34,37,33,0.906,40.5,42.1,39.1,13.48,14.6,204,10,20.9,0.00111,0.00137,71.2,68.1,9,13,.,.,17.17,0.00,0.00
15min,AgWx,beryljct,423,10SEP2019:20:00:00,70.4,13.1,69.4,69.2,69.3,69.7,69.0,39,40,37,0.947,43.0,43.6,42.2,15.04,13.7,211,9.5,18.5,0.00097,0.00121,71.0,68.2,9,4,.,.,17.17,0.00,0.00
15min,AgWx,beryljct,423,10SEP2019:20:15:00,69.8,13.07,69.2,69.0,69.1,69.4,68.8,40,40,39,0.968,43.5,43.9,43.2,15.56,13.5,196,9.4,20.2,0.00094,0.00117,70.8,68.3,9,0,.,.,17.17,0.00,0.00
15min,AgWx,beryljct,423,10SEP2019:20:30:00,69.4,13.06,68.9,69.0,69.1,69.4,68.7,40,41,40,0.967,43.8,44.0,43.6,13.02,14.4,189,8.6,19.9,0.00097,0.00119,70.6,68.3,9,0,.,.,17.17,0.00,0.00
15min,AgWx,beryljct,423,10SEP2019:20:45:00,68.9,13.06,68.8,68.4,68.2,69.0,67.8,42,43,40,0.993,44.1,44.6,43.7,11.68,10.4,191,9.3,17.4,0.00074,0.00096,70.4,68.4,9,0,.,.,17.18,0.00,0.00
15min,AgWx,beryljct,423,10SEP2019:21:00:00,68.5,13.06,68.6,69.0,68.7,69.0,68.4,42,42,41,0.995,44.5,44.7,44.3,10.35,13.1,190,9.3,18.9,0.00087,0.00109,70.2,68.4,10,0,.,.,17.18,0.00,0.00
15min,AgWx,beryljct,423,10SEP2019:21:15:00,68.4,13.04,68.5,68.3,68.6,69.0,68.3,42,42,41,0.998,44.4,44.6,44.2,12.67,11.6,181,9.4,18.0,0.00081,0.00103,70.0,68.5,9,0,.,.,17.18,0.00,0.00
15min,AgWx,beryljct,423,10SEP2019:21:30:00,68.1,13.04,68.4,68.2,68.2,68.5,67.9,43,43,42,1.003,44.6,44.7,44.5,12.65,11.1,186,12,17.2,0.00076,0.00098,69.8,68.5,9,0,.,.,17.18,0.00,0.00
15min,AgWx,beryljct,423,10SEP2019:21:45:00,68.0,13.04,68.9,68.7,68.4,68.9,68.0,43,43,42,1.012,44.8,45.1,44.6,12.23,12.4,195,9.5,18.9,0.00082,0.00104,69.6,68.5,9,0,.,.,17.18,0.00,0.00
15min,AgWx,beryljct,423,10SEP2019:22:00:00,67.9,13.03,67.3,67.9,68.2,68.7,67.8,43,44,42,1.029,45.0,45.3,44.8,7.914,9.7,197,9.5,13.6,0.00068,0.00089,69.4,68.5,9,0,.,.,17.18,0.00,0.00
15min,AgWx,beryljct,423,10SEP2019:22:15:00,67.8,13.02,67.8,68.0,68.1,68.4,67.7,44,45,43,1.025,45.3,45.5,45.1,5.985,9.9,191,9.8,15.1,0.00068,0.00089,69.3,68.5,9,0,.,.,17.18,0.00,0.00
15min,AgWx,beryljct,423,10SEP2019:22:30:00,67.8,13.02,67.8,68.1,67.9,68.3,67.4,44,45,44,1.058,45.5,46.2,45.1,9.32,9.3,194,14,13.5,0.00063,0.00084,69.1,68.5,9,0,.,.,17.18,0.00,0.00
15min,AgWx,beryljct,423,10SEP2019:22:45:00,67.2,13,65.5,66.1,67.7,68.4,66.1,47,54,44,1.179,47.0,49.1,45.5,10.22,11.0,201,8.8,21.4,0.00068,0.00087,68.9,68.5,9,0,.,.,17.18,0.01,0.00
15min,AgWx,beryljct,423,10SEP2019:23:00:00,66.0,13.01,63.4,64.3,65.7,66.5,64.3,53,59,47,1.212,48.1,49.8,45.6,9.16,11.4,216,16,18.5,0.00058,0.00074,68.8,68.5,9,0,.,.,17.19,0.00,0.00
15min,AgWx,beryljct,423,10SEP2019:23:15:00,64.8,13.01,63.0,63.3,63.8,64.4,62.7,60,65,58,1.199,49.8,51.3,49.2,10.52,11.3,209,16,17.1,0.00044,0.00057,68.6,68.5,9,0,.,.,17.20,0.01,0.00
15min,AgWx,beryljct,423,10SEP2019:23:30:00,63.1,13,64.1,63.6,63.0,63.8,62.6,62,65,59,1.204,49.9,50.5,49.1,11.6,11.7,217,11,20.1,0.00042,0.00053,68.4,68.5,9,0,.,.,17.20,0.01,0.00
15min,AgWx,beryljct,423,10SEP2019:23:45:00,62.7,12.98,64.0,64.9,63.9,65.1,63.2,57,61,51,1.103,48.6,49.9,46.5,9.4,11.9,203,10,20.3,0.00051,0.00064,68.3,68.5,9,0,.,.,17.20,0.00,0.00
15min,AgWx,beryljct,423,11SEP2019:00:00:00,62.3,12.98,65.1,65.0,64.7,65.0,64.3,52,54,48,1.009,46.5,47.9,44.8,15.54,14.2,198,10,21.2,0.00067,0.00082,68.1,68.5,9,0,.,.,17.20,0.01,0.00
15min,AgWx,beryljct,423,11SEP2019:00:15:00,62.8,12.97,65.6,65.6,65.4,65.7,64.8,46,48,43,0.935,44.1,44.9,42.7,13.33,14.4,199,9.6,20.8,0.00078,0.00096,67.9,68.4,9,0,.,.,17.20,0.00,0.00
15min,AgWx,beryljct,423,11SEP2019:00:30:00,63.8,12.98,65.5,65.3,65.9,66.6,65.3,42,44,41,0.918,42.2,42.9,41.8,13.72,13.6,204,9.2,23.7,0.00083,0.00102,67.8,68.4,9,0,.,.,17.20,0.00,0.00
15min,AgWx,bigpiney,439,10SEP2019:00:00:00,42.8,12.72,38.3,38.5,40.9,43.1,38.4,81,88,76,0.692,35.4,36.5,34.6,4.319,3.0,207,42,5.6,-0.00007,-0.00008,51.9,50.8,41,0,0,0.0,4.58,0.00,0.00
15min,AgWx,bigpiney,439,10SEP2019:00:15:00,42.7,12.71,39.6,39.3,38.8,39.4,38.3,88,88,87,0.712,35.6,36.1,35.0,5.02,4.4,226,8.6,5.4,-0.00006,-0.00006,51.8,50.8,41,0,0,0.0,4.58,0.00,0.00
15min,AgWx,bigpiney,439,10SEP2019:00:30:00,42.6,12.7,39.6,39.6,39.8,40.4,39.3,86,88,84,0.701,36.0,36.4,35.4,3.661,4.0,227,6.8,5.1,-0.00006,-0.00007,51.7,50.8,41,0,0,0.0,4.58,0.00,0.00
15min,AgWx,bigpiney,439,10SEP2019:00:45:00,42.4,12.7,42.2,41.1,40.2,41.2,39.2,83,86,79,0.706,35.4,36.0,34.7,3.683,3.7,259,22,4.6,-0.00005,-0.00006,51.7,50.8,41,0,0,0.0,4.58,0.00,0.00
15min,AgWx,bigpiney,439,10SEP2019:01:00:00,42.1,12.7,40.3,39.9,41.4,42.1,39.9,78,80,77,0.668,35.1,35.9,34.0,5.086,3.8,278,8.1,5.6,-0.00003,-0.00003,51.6,50.8,41,0,0,0.0,4.58,0.00,0.00
15min,AgWx,bigpiney,439,10SEP2019:01:15:00,42.0,12.68,43.9,43.2,41.2,43.2,39.9,79,83,74,0.702,35.2,35.6,34.3,6.818,5.9,284,6.8,7.6,0.00001,0.00003,51.5,50.8,41,0,0,0.0,4.58,0.00,0.00
15min,AgWx,bigpiney,439,10SEP2019:01:30:00,42.5,12.67,45.7,45.5,44.9,45.5,43.2,69,74,68,0.709,35.5,35.8,35.2,7.453,7.3,302,13,9.7,0.00012,0.00016,51.5,50.8,41,0,0,0.0,4.58,0.00,0.00
15min,AgWx,bigpiney,439,10SEP2019:01:45:00,43.3,12.67,45.2,45.0,44.9,45.5,44.5,71,72,68,0.712,35.9,36.1,35.7,6.905,6.1,325,8.9,8.4,0.00008,0.00012,51.4,50.7,41,0,0,0.0,4.58,0.00,0.00
15min,AgWx,bigpiney,439,10SEP2019:02:00:00,43.9,12.67,43.2,43.5,44.1,45.0,43.5,72,73,70,0.695,35.6,36.0,35.2,3.968,4.1,323,14,6.7,0.00001,0.00003,51.3,50.7,41,0,0,0.0,4.58,0.00,0.00
15min,AgWx,bigpiney,439,10SEP2019:02:15:00,44.2,12.66,42.6,42.7,43.1,43.5,42.7,73,74,72,0.685,35.0,35.2,34.6,4.341,3.9,334,8.3,5.7,-0.00000,0.00001,51.2,50.8,41,0,0,0.0,4.58,0.00,0.00
15min,AgWx,bigpiney,439,10SEP2019:02:30:00,44.0,12.65,39.3,38.7,41.4,42.7,38.7,76,80,73,0.638,34.4,35.1,32.6,4.845,3.0,254,55,4.8,-0.00005,-0.00005,51.2,50.7,41,0,0,0.0,4.58,0.00,0.00
15min,AgWx,bigpiney,439,10SEP2019:02:45:00,43.7,12.65,42.8,42.2,41.2,42.5,38.8,76,81,73,0.675,34.2,35.0,33.2,0.855,2.7,250,56,4.9,-0.00006,-0.00006,51.1,50.7,41,0,0,0.0,4.58,0.00,0.00
15min,AgWx,bigpiney,439,10SEP2019:03:00:00,43.4,12.65,43.7,43.2,42.5,43.2,41.8,77,78,74,0.727,35.6,36.4,34.4,9.97,5.5,342,14,10.0,0.00002,0.00004,51.0,50.7,41,0,0,0.0,4.58,0.00,0.00
15min,AgWx,bigpiney,439,10SEP2019:03:15:00,43.7,12.63,43.9,43.5,43.4,43.5,43.2,76,77,75,0.724,36.3,36.5,36.2,7.41,10.4,337,11,14.9,0.00012,0.00015,51.0,50.7,41,0,0,0.0,4.58,0.00,0.00
15min,AgWx,bigpiney,439,10SEP2019:03:30:00,44.1,12.63,44.1,43.9,43.6,43.9,43.4,75,75,74,0.720,36.2,36.3,36.1,7.212,8.1,333,17,12.1,0.00009,0.00012,50.9,50.7,41,0,0,0.0,4.58,0.00,0.00
15min,AgWx,bigpiney,439,10SEP2019:03:45:00,44.6,12.63,44.5,44.2,44.0,44.3,43.6,73,75,72,0.716,36.1,36.3,35.9,5.853,7.5,340,14,11.1,0.00009,0.00013,50.8,50.7,41,0,0,0.0,4.58,0.00,0.00
15min,AgWx,bigpiney,439,10SEP2019:04:00:00,44.9,12.62,44.0,43.5,43.9,44.2,43.5,73,74,72,0.711,35.9,36.1,35.7,6.16,5.9,337,11,9.3,0.00006,0.00009,50.7,50.7,41,0,0,0.0,4.58,0.00,0.00
15min,AgWx,bigpiney,439,10SEP2019:04:15:00,45.0,12.62,44.0,43.5,43.6,43.7,43.4,74,75,74,0.716,35.9,36.0,35.7,7.958,6.5,338,9.0,8.6,0.00006,0.00009,50.7,50.6,41,0,0,0.0,4.58,0.00,0.00
15min,AgWx,bigpiney,439,10SEP2019:04:30:00,45.1,12.61,44.3,44.0,43.8,44.0,43.5,74,74,73,0.715,35.9,36.0,35.8,9.03,9.3,333,9.6,12.9,0.00012,0.00016,50.6,50.7,41,0,0,0.0,4.58,0.00,0.00
15min,AgWx,bigpiney,439,10SEP2019:04:45:00,45.2,12.61,44.1,43.7,43.7,44.0,43.5,74,74,73,0.711,35.9,36.0,35.8,9.43,8.9,328,8.5,12.5,0.00011,0.00015,50.5,50.6,41,0,0,0.0,4.58,0.00,0.00
15min,AgWx,bigpiney,439,10SEP2019:05:00:00,45.1,12.6,43.5,43.4,43.6,43.8,43.4,74,74,73,0.709,35.7,35.9,35.6,6.445,7.8,320,8.0,10.0,0.00009,0.00013,50.5,50.6,41,0,0,0.0,4.58,0.00,0.00
15min,AgWx,bigpiney,439,10SEP2019:05:15:00,45.0,12.6,43.1,42.8,43.3,43.5,42.8,74,75,74,0.701,35.7,35.8,35.5,6.818,7.0,317,9.1,11.1,0.00007,0.00011,50.4,50.6,41,0,0,0.0,4.58,0.00,0.00
15min,AgWx,bigpiney,439,10SEP2019:05:30:00,44.8,12.59,42.1,42.1,42.7,43.2,42.1,75,76,74,0.686,35.3,35.6,34.9,4.056,6.0,324,11,9.8,0.00005,0.00007,50.4,50.6,41,0,0,0.0,4.58,0.00,0.00
15min,AgWx,bigpiney,439,10SEP2019:05:45:00,44.3,12.59,41.9,41.4,41.5,42.0,41.2,77,78,76,0.675,34.8,35.1,34.5,3.924,3.8,332,17,6.9,-0.00003,-0.00002,50.3,50.5,41,0,0,0.0,4.58,0.00,0.00
15min,AgWx,bigpiney,439,10SEP2019:06:00:00,43.7,12.57,42.5,42.2,41.4,42.2,40.9,77,78,75,0.689,34.8,35.2,34.4,0.088,3.2,311,21,5.2,-0.00005,-0.00005,50.2,50.6,41,0,0,0.0,4.58,0.00,0.00
15min,AgWx,bigpiney,439,10SEP2019:06:15:00,43.3,12.56,42.1,41.8,41.8,42.2,41.2,76,77,74,0.678,34.7,35.1,33.8,1.754,1.2,262,17,3.0,-0.00014,-0.00020,50.2,50.6,41,0,0,0.0,4.58,0.00,0.00
15min,AgWx,bigpiney,439,10SEP2019:06:30:00,43.0,12.56,42.3,41.9,41.9,42.3,41.5,75,77,74,0.681,34.7,35.0,34.4,2.674,2.3,264,15,4.9,-0.00008,-0.00010,50.2,50.5,41,0,0,0.0,4.58,0.00,0.00
15min,AgWx,bigpiney,439,10SEP2019:06:45:00,42.7,12.55,42.6,41.9,41.9,42.3,41.1,75,76,73,0.681,34.4,34.9,33.4,2.455,2.9,259,21,5.3,-0.00005,-0.00005,50.1,50.5,41,0,0,0.0,4.58,0.00,0.00
15min,AgWx,bigpiney,439,10SEP2019:07:00:00,42.3,12.55,42.0,41.8,42.3,42.8,41.8,73,75,72,0.667,34.3,34.8,33.9,3.639,4.0,288,8.1,5.6,0.00000,0.00002,50.0,50.5,41,4,0,0.0,4.58,0.00,0.00